sat.trackr.live / text

‹ back to catalog

STARLINK-4280

NORAD 53178 · 2022-083AY

PAYLOAD ACTIVE UNKNOWN

§ Identity

Operator
Country
US
Launch date
2022-07-17
Launch site
AFETR
Launch vehicle
Mass (kg)
RCS (m²)

Purposes: comms

External: N2YO · Heavens-Above · Gunter

§ Orbital elements

Epoch: 2026-09-20T04:00:03.000096Z

Period
94.80 min
Inclination
53.1598°
Eccentricity
0.0002323
Mean motion
15.18942212 rev/d
Perigee alt
507.4 km
Apogee alt
510.6 km
Semi-major
6,887.2 km
B*
3.6258e-3
RAAN
10.0760°
Arg perigee
60.5032°
Mean anomaly
132.3042°
Rev number
584

§ Raw data

STARLINK-42801 53178U 22083AY  26263.16670139  .00077182  00000+0  36258-2 0  99912 53178  53.1598  10.0760 0002323  60.5032 132.3042 15.18942212  5844

JSON: /api/v1/satellites/53178 · /tle

For live sub-satellite position, see the globe view (requires WebGL).

§ Visibility from observer

Set your observer location to see the next 7 days of passes ≥ 10°. The values pass through the URL so the page stays shareable.

No JS? Fill the form by hand. The geolocation button needs JavaScript.